1529182800.98,56110,17.13,74086.3,3.21,-0.07,-0.27,0,*4C
1529182802.18,56111,17.13,74086.8,3.19,-0.03,-0.19,0,*4F
1529182803.35,56112,17.13,74084.5,3.21,-0.07,-0.19,0,*43
1529182804.55,56113,17.13,74084.3,3.21,-0.07,-0.27,0,*4F
1529182805.73,56114,17.13,74086.3,3.21,-0.07,-0.19,0,*45
1529182806.91,56115,17.13,74080.5,3.21,-0.15,-0.19,0,*77
1529182808.11,56116,17.13,74086.8,3.25,-0.11,-0.23,0,*7D
1529182809.31,56117,17.13,74084.0,3.25,-0.15,-0.27,0,*7C
1529182810.48,56118,17.13,74084.3,3.21,-0.07,-0.19,0,*49
1529182811.68,56119,17.13,74086.8,3.21,-0.07,-0.27,0,*45
1529182812.86,56120,17.13,74086.5,3.21,-0.15,-0.19,0,*71
1529182814.06,56121,17.13,74084.5,3.21,-0.15,-0.27,0,*7D
1529182815.27,56122,17.13,74084.5,3.21,-0.15,-0.27,0,*7E
1529182816.49,56123,17.13,74080.3,3.19,-0.15,-0.27,0,*74
1529182817.69,56124,17.13,74082.3,3.19,-0.15,-0.19,0,*7E
1529182818.9,56125,17.13,74084.8,3.19,-0.15,-0.19,0,*7F
1529182820.13,56126,17.13,74084.8,3.19,-0.19,-0.27,0,*7D
1529182821.33,56127,17.13,74080.3,3.19,-0.07,-0.19,0,*4E
1529182822.51,56128,17.13,74082.3,3.21,-0.15,-0.19,0,*79
1529182823.73,56129,17.13,74082.8,3.19,-0.19,-0.27,0,*72
1529182824.96,56130,17.13,74084.5,3.19,-0.15,-0.27,0,*76
1529182826.16,56131,17.13,74082.8,3.19,-0.07,-0.19,0,*49
1529182827.35,56132,17.13,74082.0,3.25,-0.03,-0.23,0,*48
1529182828.54,56133,17.13,74082.5,3.21,-0.19,-0.19,0,*7F
1529182829.74,56134,17.13,74082.0,3.21,-0.11,-0.23,0,*79
1529182830.94,56135,17.13,74084.3,3.21,-0.15,-0.27,0,*78
1529182832.15,56136,17.13,74080.3,3.21,-0.19,-0.27,0,*77
1529182833.33,56137,17.13,74080.3,3.21,-0.15,-0.29,0,*74
1529182834.53,56138,17.13,74082.3,3.25,-0.11,-0.27,0,*75
1529182835.73,56139,17.13,74082.8,3.21,-0.15,-0.27,0,*74
1529182836.93,56140,17.13,74084.8,3.21,-0.19,-0.27,0,*76
1529182838.14,56141,17.13,74080.5,3.21,-0.11,-0.23,0,*7B
1529182839.34,56142,17.13,74080.8,3.25,-0.11,-0.23,0,*7C
1529182840.55,56143,17.13,74086.0,3.21,-0.19,-0.27,0,*75
1529182841.75,56144,17.13,74080.8,3.21,-0.15,-0.27,0,*7E
1529182842.93,56145,17.13,74082.3,3.21,-0.19,-0.29,0,*7D
1529182844.11,56146,17.13,74086.5,3.21,-0.19,-0.29,0,*7E
1529182845.28,56147,17.13,74086.8,3.21,-0.19,-0.29,0,*7F
1529182846.46,56148,17.13,74086.5,3.21,-0.19,-0.29,0,*70
1529182847.64,56149,17.13,74086.0,3.21,-0.15,-0.29,0,*7D
1529182848.81,56150,17.13,74084.8,3.21,-0.15,-0.29,0,*75
1529182849.99,56151,17.13,74080.5,3.21,-0.19,-0.29,0,*78
1529182851.19,56152,17.13,74080.8,3.21,-0.15,-0.27,0,*79
1529182852.4,56153,17.13,74084.5,3.21,-0.15,-0.27,0,*78
1529182853.57,56154,17.13,74082.0,3.21,-0.15,-0.29,0,*71
1529182854.75,56155,17.13,74084.3,3.25,-0.15,-0.33,0,*7F
1529182855.93,56156,17.13,74082.0,3.21,-0.19,-0.29,0,*7F
1529182857.11,56157,17.13,74080.0,3.21,-0.19,-0.29,0,*7E
1529182858.28,56158,17.13,74084.3,3.21,-0.15,-0.29,0,*7D
1529182859.46,56159,17.13,74084.5,3.21,-0.19,-0.29,0,*70
1529182860.64,56160,17.13,74082.3,3.25,-0.15,-0.33,0,*79
1529182861.82,56161,17.13,74080.3,3.21,-0.19,-0.37,0,*74
1529182863.0,56162,17.13,74082.0,3.21,-0.19,-0.29,0,*78
1529182864.21,56163,17.13,74082.0,3.21,-0.27,-0.37,0,*7B
1529182865.39,56164,17.13,74080.0,3.25,-0.15,-0.33,0,*7D
1529182866.59,56165,17.13,74084.0,3.21,-0.27,-0.37,0,*7D
1529182867.8,56166,17.13,74082.3,3.25,-0.23,-0.33,0,*7A
1529182868.98,56167,17.13,74086.0,3.21,-0.19,-0.37,0,*72
1529182870.16,56168,17.13,74082.5,3.25,-0.19,-0.29,0,*76
1529182871.34,56169,17.13,74080.8,3.21,-0.19,-0.29,0,*73
1529182872.51,56170,17.13,74082.8,3.21,-0.19,-0.29,0,*7B
1529182873.74,56171,17.13,74078.0,3.25,-0.23,-0.27,0,*79
1529182874.94,56172,17.13,74082.0,3.21,-0.27,-0.37,0,*7B
1529182876.15,56173,17.13,74082.8,3.21,-0.27,-0.37,0,*7A
1529182877.34,56174,17.13,74080.8,3.21,-0.19,-0.37,0,*70
1529182878.52,56175,17.13,74084.0,3.21,-0.19,-0.37,0,*71
1529182879.73,56176,17.13,74082.0,3.21,-0.27,-0.37,0,*7F
1529182880.93,56177,17.13,74084.3,3.21,-0.27,-0.29,0,*71
1529182882.13,56178,17.13,74084.0,3.25,-0.27,-0.33,0,*71
1529182883.33,56179,17.13,74082.5,3.21,-0.27,-0.29,0,*7F
1529182884.54,56180,17.13,74082.0,3.21,-0.27,-0.37,0,*76
1529182885.74,56181,17.13,74078.3,3.25,-0.27,-0.33,0,*77
1529182886.94,56182,17.13,74080.8,3.25,-0.27,-0.33,0,*74
1529182888.12,56183,17.13,74082.3,3.21,-0.29,-0.37,0,*7B
1529182889.3,56184,17.13,74082.3,3.21,-0.29,-0.37,0,*7C
1529182890.51,56185,17.13,74078.8,3.21,-0.27,-0.37,0,*73
1529182891.71,56186,17.13,74082.5,3.25,-0.27,-0.33,0,*70
1529182892.92,56187,17.13,74082.5,3.21,-0.27,-0.41,0,*70
1529182894.12,56188,17.13,74084.8,3.25,-0.27,-0.37,0,*7A
1529182895.33,56189,17.13,74080.0,3.25,-0.27,-0.37,0,*7B
1529182896.53,56190,17.13,74086.8,3.21,-0.27,-0.37,0,*77
1529182897.71,56191,17.13,74084.8,3.21,-0.29,-0.37,0,*78
1529182898.92,56192,17.13,74082.3,3.25,-0.23,-0.33,0,*71
1529182900.12,56193,17.13,74082.3,3.25,-0.23,-0.33,0,*70
1529182901.32,56194,17.13,74080.3,3.21,-0.27,-0.37,0,*73
1529182902.5,56195,17.13,74080.8,3.21,-0.29,-0.37,0,*7C
1529182903.68,56196,17.13,74080.5,3.25,-0.29,-0.37,0,*7B
1529182904.86,56197,17.13,74082.8,3.25,-0.29,-0.37,0,*7A
1529182906.03,56198,17.13,74082.0,3.21,-0.29,-0.37,0,*71
1529182907.24,56199,17.13,74084.8,3.21,-0.23,-0.41,0,*7B
1529182908.43,56200,17.13,74084.8,3.21,-0.29,-0.41,0,*72
1529182909.64,56201,17.13,74084.3,3.21,-0.27,-0.41,0,*7D
1529182910.85,56202,17.13,74084.5,3.21,-0.27,-0.41,0,*7E
1529182912.03,56203,17.13,74086.8,3.21,-0.29,-0.41,0,*71
1529182913.21,56204,17.13,74080.3,3.21,-0.29,-0.49,0,*7E
1529182914.42,56205,17.13,74082.5,3.21,-0.27,-0.37,0,*78
1529182915.62,56206,17.13,74084.8,3.21,-0.27,-0.49,0,*72
1529182916.83,56207,17.13,74080.8,3.25,-0.27,-0.37,0,*7E
1529182918.04,56208,17.13,74082.3,3.21,-0.27,-0.41,0,*74
1529182919.22,56209,17.13,74084.0,3.21,-0.29,-0.41,0,*7B
1529182920.42,56210,17.13,74086.3,3.25,-0.23,-0.37,0,*7C
1529182921.6,56211,17.13,74082.8,3.25,-0.29,-0.41,0,*76
1529182922.81,56212,17.13,74082.0,3.21,-0.27,-0.41,0,*7F
1529182924.01,56213,17.13,74086.0,3.25,-0.27,-0.37,0,*7B
1529182925.19,56214,17.13,74082.8,3.21,-0.29,-0.49,0,*7F
1529182926.38,56215,17.13,74080.0,3.21,-0.29,-0.41,0,*76
1529182927.56,56216,17.13,74082.3,3.21,-0.29,-0.41,0,*75
1529182928.74,56217,17.13,74080.8,3.21,-0.29,-0.41,0,*74
1529182929.92,56218,17.13,74080.8,3.21,-0.29,-0.41,0,*7B
1529182931.1,56219,17.13,74082.8,3.21,-0.29,-0.41,0,*7A
1529182932.31,56220,17.13,74084.5,3.25,-0.27,-0.45,0,*7E
1529182933.51,56221,17.13,74084.8,3.25,-0.23,-0.37,0,*7E
1529182934.71,56222,17.13,74084.5,3.25,-0.27,-0.37,0,*79
1529182935.91,56223,17.13,74080.0,3.25,-0.23,-0.37,0,*7C
1529182937.12,56224,17.13,74082.8,3.25,-0.27,-0.37,0,*7F
1529182938.3,56225,17.13,74082.3,3.21,-0.29,-0.41,0,*75
1529182939.5,56226,17.13,74082.8,3.25,-0.27,-0.37,0,*7D
1529182940.71,56227,17.13,74082.8,3.25,-0.27,-0.37,0,*7C
1529182941.91,56228,17.13,74080.0,3.21,-0.27,-0.49,0,*7E
1529182943.1,56229,17.13,74080.8,3.21,-0.29,-0.41,0,*79
1529182944.3,56230,17.13,74080.8,3.25,-0.27,-0.45,0,*7F
1529182945.48,56231,17.13,74082.0,3.21,-0.29,-0.41,0,*70
1529182946.69,56232,17.13,74078.5,3.21,-0.27,-0.41,0,*7D
1529182947.87,56233,17.13,74082.3,3.21,-0.29,-0.49,0,*7A
1529182949.07,56234,17.13,74080.3,3.25,-0.23,-0.37,0,*7A
1529182950.25,56235,17.13,74082.3,3.21,-0.29,-0.49,0,*7C
1529182951.45,56236,17.13,74082.5,3.25,-0.23,-0.37,0,*78
1529182952.63,56237,17.13,74082.3,3.21,-0.29,-0.45,0,*72
1529182953.83,56238,17.13,74082.8,3.25,-0.27,-0.37,0,*72
1529182955.03,56239,17.13,74078.5,3.25,-0.27,-0.45,0,*76
1529182956.24,56240,17.13,74078.8,3.25,-0.27,-0.37,0,*7D
1529182957.44,56241,17.13,74078.3,3.25,-0.27,-0.45,0,*79
1529182958.64,56242,17.13,74082.3,3.25,-0.27,-0.45,0,*7A
1529182959.84,56243,17.13,74080.8,3.21,-0.27,-0.45,0,*7F
1529182961.02,56244,17.13,74078.3,3.21,-0.29,-0.49,0,*7A
1529182962.2,56245,17.13,74082.8,3.21,-0.29,-0.49,0,*7B
1529182963.38,56246,17.13,74082.8,3.21,-0.29,-0.49,0,*78
1529182964.58,56247,17.13,74084.8,3.25,-0.27,-0.45,0,*7F
1529182965.78,56248,17.13,74084.5,3.21,-0.27,-0.49,0,*78
1529182966.98,56249,17.13,74080.0,3.25,-0.27,-0.45,0,*71
1529182968.18,56250,17.13,74082.5,3.25,-0.27,-0.45,0,*79
1529182969.39,56251,17.13,74078.8,3.21,-0.27,-0.37,0,*79
1529182970.59,56252,17.13,74080.8,3.25,-0.27,-0.37,0,*7E
1529182971.8,56253,17.13,74084.3,3.19,-0.29,-0.49,0,*77
1529182973.0,56254,17.13,74080.0,3.25,-0.27,-0.37,0,*78
1529182974.2,56255,17.13,74076.8,3.25,-0.27,-0.45,0,*7C
1529182975.4,56256,17.13,74076.0,3.25,-0.27,-0.49,0,*73
1529182976.61,56257,17.13,74080.8,3.25,-0.27,-0.49,0,*72
1529182977.81,56258,17.13,74082.8,3.25,-0.27,-0.45,0,*71
1529182979.01,56259,17.13,74082.3,3.25,-0.27,-0.49,0,*7C
1529182980.19,56260,17.13,74078.8,3.21,-0.29,-0.49,0,*7C
1529182981.39,56261,17.13,74078.0,3.25,-0.27,-0.45,0,*7B
1529182982.59,56262,17.13,74080.0,3.25,-0.27,-0.45,0,*78
1529182983.76,56263,17.13,74078.3,3.21,-0.29,-0.53,0,*74
1529182984.97,56264,17.13,74082.3,3.21,-0.27,-0.49,0,*76
1529182986.15,56265,17.13,74080.5,3.21,-0.29,-0.49,0,*79
1529182987.35,56266,17.13,74076.0,3.25,-0.27,-0.45,0,*7C
1529182988.55,56267,17.13,74076.5,3.25,-0.27,-0.57,0,*7E
1529182989.75,56268,17.13,74078.3,3.25,-0.27,-0.49,0,*7E
1529182990.93,56269,17.13,74078.8,3.21,-0.29,-0.49,0,*75
1529182992.13,56270,17.13,74080.8,3.25,-0.27,-0.49,0,*77
1529182993.33,56271,17.13,74078.0,3.25,-0.23,-0.57,0,*7D
1529182994.53,56272,17.13,74076.8,3.25,-0.27,-0.45,0,*79
1529182995.73,56273,17.13,74076.0,3.25,-0.27,-0.49,0,*74
1529182996.94,56274,17.13,74078.3,3.25,-0.27,-0.49,0,*73
1529182998.14,56275,17.13,74080.0,3.25,-0.27,-0.49,0,*72
1529182999.34,56276,17.13,74078.0,3.25,-0.27,-0.49,0,*71
1529183000.55,56277,17.13,74078.3,3.25,-0.27,-0.49,0,*70
1529183001.73,56278,17.13,74080.5,3.21,-0.29,-0.49,0,*75
1529183002.93,56279,17.13,74082.8,3.25,-0.27,-0.57,0,*71
1529183004.13,56280,17.13,74078.3,3.25,-0.27,-0.49,0,*78
1529183005.33,56281,17.13,74078.3,3.25,-0.27,-0.49,0,*79
1529183006.54,56282,17.13,74076.8,3.25,-0.23,-0.49,0,*7E
1529183007.74,56283,17.13,74078.0,3.25,-0.27,-0.49,0,*7B
1529183008.91,56284,17.13,74078.0,3.25,-0.33,-0.57,0,*76
1529183010.11,56285,17.13,74080.3,3.25,-0.27,-0.49,0,*7D
1529183011.32,56286,17.13,74080.5,3.25,-0.27,-0.49,0,*7E
1529183012.52,56287,17.13,74082.0,3.25,-0.27,-0.49,0,*7F
1529183013.72,56288,17.13,74080.5,3.21,-0.27,-0.53,0,*7F
1529183014.95,56289,17.13,74080.0,3.27,-0.27,-0.49,0,*73
1529183016.18,56290,17.13,74078.3,3.27,-0.27,-0.45,0,*77
1529183017.36,56291,17.13,74080.3,3.21,-0.29,-0.49,0,*72
1529183018.56,56292,17.13,74080.3,3.25,-0.27,-0.45,0,*77
1529183019.74,56293,17.13,74084.0,3.21,-0.29,-0.49,0,*70
1529183020.94,56294,17.13,74082.3,3.25,-0.23,-0.45,0,*75
1529183022.14,56295,17.13,74078.5,3.25,-0.27,-0.49,0,*7C
1529183023.34,56296,17.13,74082.0,3.25,-0.27,-0.45,0,*73
1529183024.54,56297,17.13,74082.0,3.25,-0.27,-0.45,0,*72
1529183025.74,56298,17.13,74082.5,3.25,-0.23,-0.49,0,*75
1529183026.94,56299,17.13,74078.3,3.25,-0.27,-0.49,0,*70
1529183028.15,56300,17.13,74076.0,3.21,-0.27,-0.53,0,*7E
1529183029.35,56301,17.13,74082.5,3.25,-0.27,-0.49,0,*70
1529183030.52,56302,17.13,74080.5,3.21,-0.29,-0.61,0,*73
1529183031.72,56303,17.13,74078.3,3.25,-0.27,-0.45,0,*7E
1529183032.92,56304,17.13,74082.0,3.25,-0.27,-0.45,0,*79
1529183034.12,56305,17.13,74078.3,3.25,-0.23,-0.49,0,*70
1529183035.32,56306,17.13,74078.3,3.25,-0.23,-0.45,0,*7F
1529183036.53,56307,17.13,74082.8,3.25,-0.27,-0.37,0,*7F
1529183037.73,56308,17.13,74076.0,3.25,-0.27,-0.45,0,*75
1529183038.9,56309,17.13,74078.3,3.25,-0.29,-0.53,0,*7D
1529183040.12,56310,17.13,74082.8,3.27,-0.23,-0.45,0,*7A
1529183041.33,56311,17.13,74078.3,3.25,-0.27,-0.49,0,*71
1529183042.53,56312,17.13,74078.3,3.25,-0.23,-0.45,0,*7A
1529183043.75,56313,17.13,74078.8,3.27,-0.23,-0.45,0,*79
1529183044.96,56314,17.13,74076.5,3.21,-0.27,-0.49,0,*70
1529183046.16,56315,17.13,74076.3,3.25,-0.23,-0.37,0,*78
1529183047.36,56316,17.13,74078.5,3.25,-0.23,-0.45,0,*7E
1529183048.56,56317,17.13,74080.3,3.25,-0.27,-0.45,0,*7B
1529183049.77,56318,17.13,74076.0,3.25,-0.27,-0.37,0,*71
1529183050.99,56319,17.13,74076.3,3.27,-0.23,-0.37,0,*76
1529183052.19,56320,17.13,74074.3,3.25,-0.23,-0.45,0,*7B
1529183053.4,56321,17.13,74078.0,3.25,-0.27,-0.37,0,*7B
1529183054.6,56322,17.13,74078.3,3.25,-0.23,-0.45,0,*79
1529183055.82,56323,17.13,74076.8,3.27,-0.23,-0.45,0,*7A
1529183057.05,56324,17.13,74078.3,3.27,-0.23,-0.45,0,*7D
1529183058.24,56325,17.13,74076.5,3.29,-0.19,-0.41,0,*7F
1529183059.46,56326,17.13,74076.0,3.27,-0.23,-0.45,0,*7F
1529183060.69,56327,17.13,74078.5,3.27,-0.23,-0.37,0,*7B
1529183061.92,56328,17.13,74078.5,3.27,-0.23,-0.37,0,*74
1529183063.15,56329,17.13,74076.8,3.27,-0.23,-0.45,0,*70
1529183064.35,56330,17.13,74074.8,3.25,-0.27,-0.45,0,*7E
1529183065.55,56331,17.13,74074.0,3.25,-0.23,-0.45,0,*7B
1529183066.75,56332,17.13,74078.5,3.25,-0.23,-0.37,0,*7D
1529183067.95,56333,17.13,74074.8,3.25,-0.23,-0.45,0,*79
1529183069.15,56334,17.13,74078.8,3.25,-0.23,-0.45,0,*7E
1529183070.35,56335,17.13,74080.8,3.25,-0.23,-0.45,0,*7F
1529183071.55,56336,17.13,74076.8,3.25,-0.23,-0.37,0,*79
1529183072.73,56337,17.13,74076.8,3.25,-0.15,-0.37,0,*7D
1529183073.94,56338,17.13,74076.3,3.27,-0.15,-0.37,0,*70
1529183075.14,56339,17.13,74076.8,3.27,-0.15,-0.37,0,*71
1529183076.37,56340,17.13,74080.3,3.27,-0.23,-0.45,0,*7F
1529183077.56,56341,17.13,74076.5,3.29,-0.11,-0.41,0,*75
1529183078.78,56342,17.13,74076.5,3.27,-0.23,-0.45,0,*7D
1529183080.01,56343,17.13,74078.3,3.27,-0.23,-0.45,0,*7C
1529183081.21,56344,17.13,74080.8,3.27,-0.15,-0.45,0,*7E
1529183082.44,56345,17.13,74078.3,3.27,-0.23,-0.33,0,*7B
1529183083.67,56346,17.13,74078.8,3.27,-0.23,-0.37,0,*7C
1529183084.87,56347,17.13,74076.3,3.27,-0.15,-0.37,0,*78
1529183086.08,56348,17.13,74078.5,3.27,-0.11,-0.45,0,*76
1529183087.28,56349,17.13,74080.3,3.27,-0.11,-0.37,0,*72
1529183088.49,56350,17.13,74080.5,3.27,-0.15,-0.37,0,*7E
1529183089.68,56351,17.13,74080.5,3.29,-0.19,-0.33,0,*79
1529183090.88,56352,17.13,74076.3,3.27,-0.15,-0.37,0,*7C
1529183092.07,56353,17.13,74076.0,3.29,-0.11,-0.33,0,*73
1529183093.27,56354,17.13,74078.5,3.27,-0.15,-0.37,0,*7A
1529183094.47,56355,17.13,74076.5,3.27,-0.15,-0.45,0,*7E
1529183095.68,56356,17.13,74078.8,3.27,-0.15,-0.37,0,*78
1529183096.88,56357,17.13,74078.5,3.27,-0.15,-0.37,0,*79
1529183098.09,56358,17.13,74076.8,3.27,-0.11,-0.37,0,*72
1529183099.3,56359,17.13,74078.5,3.27,-0.11,-0.37,0,*73
1529183100.5,56360,17.13,74078.3,3.27,-0.15,-0.37,0,*7D
1529183101.68,56361,17.13,74076.3,3.29,-0.07,-0.37,0,*41
1529183102.89,56362,17.13,74078.8,3.27,-0.15,-0.37,0,*7F
1529183104.09,56363,17.13,74076.8,3.27,-0.15,-0.37,0,*7E
1529183105.3,56364,17.13,74076.5,3.27,-0.15,-0.37,0,*79
1529183106.48,56365,17.13,74078.5,3.29,-0.11,-0.33,0,*76
1529183107.66,56366,17.13,74076.5,3.29,-0.07,-0.33,0,*42
1529183108.87,56367,17.13,74078.5,3.29,-0.11,-0.23,0,*75
1529183110.08,56368,17.13,74078.5,3.27,-0.11,-0.33,0,*75
1529183111.25,56369,17.13,74076.0,3.29,-0.07,-0.29,0,*46
1529183112.45,56370,17.13,74078.5,3.27,-0.15,-0.33,0,*78
1529183113.66,56371,17.13,74078.3,3.27,-0.11,-0.33,0,*7D
1529183114.84,56372,17.13,74078.3,3.29,-0.11,-0.29,0,*7B
1529183116.05,56373,17.13,74080.5,3.27,-0.11,-0.33,0,*7F
1529183117.22,56374,17.13,74078.3,3.29,-0.07,-0.29,0,*4A
1529183118.43,56375,17.13,74080.5,3.27,-0.11,-0.33,0,*79
1529183119.61,56376,17.13,74082.0,3.29,-0.11,-0.29,0,*7F
1529183120.8,56377,17.13,74076.0,3.29,-0.11,-0.33,0,*75
1529183121.98,56378,17.13,74078.0,3.29,-0.11,-0.29,0,*71
1529183123.15,56379,17.13,74076.5,3.29,-0.07,-0.29,0,*47
1529183124.35,56380,17.13,74078.8,3.27,-0.15,-0.33,0,*77
1529183125.53,56381,17.13,74078.3,3.29,-0.11,-0.29,0,*77
1529183126.76,56382,17.13,74074.8,3.27,-0.11,-0.27,0,*74
1529183127.96,56383,17.13,74076.8,3.29,-0.07,-0.23,0,*48
1529183129.17,56384,17.13,74074.8,3.29,-0.11,-0.23,0,*78
1529183130.38,56385,17.13,74076.3,3.27,-0.11,-0.33,0,*76
1529183131.58,56386,17.13,74076.8,3.27,-0.11,-0.33,0,*75
1529183132.79,56387,17.13,74076.0,3.27,-0.11,-0.33,0,*74
1529183133.96,56388,17.13,74076.3,3.29,-0.07,-0.29,0,*49
1529183135.18,56389,17.13,74072.3,3.27,-0.03,-0.27,0,*4C
1529183136.39,56390,17.13,74078.5,3.29,-0.03,-0.27,0,*4A
1529183137.59,56391,17.13,74072.0,3.27,-0.11,-0.33,0,*73
1529183138.77,56392,17.13,74072.8,3.29,-0.11,-0.29,0,*75
1529183139.96,56393,17.13,74074.3,3.29,-0.11,-0.29,0,*74
1529183141.15,56394,17.13,74072.3,3.29,-0.07,-0.23,0,*4E
1529183142.33,56395,17.13,74074.5,3.29,-0.07,-0.29,0,*45
1529183143.53,56396,17.13,74072.3,3.29,-0.07,-0.23,0,*4C
1529183144.73,56397,17.13,74072.8,3.29,-0.11,-0.23,0,*7A
1529183145.93,56398,17.13,74078.5,3.29,-0.03,-0.27,0,*42
1529183147.11,56399,17.13,74074.5,3.29,-0.07,-0.29,0,*49
1529183148.3,56400,17.13,74072.5,3.29,0.01,-0.23,0,*6F
1529183149.52,56401,17.13,74074.8,3.27,-0.11,-0.27,0,*78
1529183150.7,56402,17.13,74074.0,3.29,-0.07,-0.29,0,*4C
1529183151.91,56403,17.13,74074.0,3.29,-0.11,-0.23,0,*70
1529183153.07,56404,17.13,74074.0,3.29,0.01,-0.29,0,*61
1529183154.26,56405,17.13,74074.8,3.29,0.01,-0.23,0,*6A
1529183155.43,56406,17.13,74072.0,3.29,0.05,-0.29,0,*67
1529183156.62,56407,17.13,74076.8,3.29,0.01,-0.23,0,*68
1529183157.81,56408,17.13,74074.8,3.29,0.01,-0.23,0,*67
1529183159.0,56409,17.13,74074.5,3.29,-0.07,-0.23,0,*4D
1529183160.2,56410,17.13,74076.0,3.31,-0.07,-0.19,0,*45
1529183161.41,56411,17.13,74074.3,3.31,-0.11,-0.19,0,*73
1529183162.62,56412,17.13,74072.8,3.31,0.01,-0.23,0,*65
1529183163.83,56413,17.13,74074.0,3.33,-0.03,-0.19,0,*40
1529183165.02,56414,17.13,74072.3,3.31,-0.07,-0.29,0,*42
1529183166.23,56415,17.13,74068.8,3.29,-0.11,-0.23,0,*77
1529183167.41,56416,17.13,74072.8,3.29,-0.11,-0.29,0,*7E
1529183168.6,56417,17.13,74070.3,3.31,-0.07,-0.29,0,*41
1529183169.81,56418,17.13,74070.5,3.31,-0.11,-0.29,0,*79
1529183171.01,56419,17.13,74072.5,3.31,-0.19,-0.29,0,*70
1529183172.21,56420,17.13,74074.8,3.31,-0.19,-0.33,0,*71
1529183173.42,56421,17.13,74072.3,3.31,-0.11,-0.29,0,*73
1529183174.62,56422,17.13,74068.3,3.31,-0.11,-0.29,0,*70
1529183175.82,56423,17.13,74072.8,3.31,-0.11,-0.29,0,*71
1529183177.04,56424,17.13,74072.5,3.31,-0.07,-0.23,0,*4B
1529183178.26,56425,17.13,74072.8,3.31,-0.07,-0.23,0,*4A
1529183179.45,56426,17.13,74072.0,3.31,-0.07,-0.29,0,*43
1529183180.67,56427,17.13,74074.5,3.31,-0.07,-0.23,0,*48
1529183181.89,56428,17.13,74074.0,3.31,-0.07,-0.23,0,*47
1529183183.1,56429,17.13,74078.5,3.31,0.01,-0.23,0,*6D
1529183184.3,56430,17.13,74072.8,3.31,-0.07,-0.19,0,*47
1529183185.5,56431,17.13,74074.8,3.31,-0.07,-0.19,0,*46
1529183186.71,56432,17.13,74074.5,3.31,0.01,-0.23,0,*67
1529183187.92,56433,17.13,74072.5,3.31,0.01,-0.23,0,*66
1529183189.13,56434,17.13,74074.3,3.33,-0.03,-0.19,0,*45
1529183190.32,56435,17.13,74072.3,3.31,0.01,-0.15,0,*65
1529183191.51,56436,17.13,74074.0,3.31,0.01,-0.19,0,*6A
1529183192.7,56437,17.13,74072.3,3.31,0.01,-0.19,0,*6B
1529183193.91,56438,17.13,74072.8,3.33,-0.03,-0.19,0,*49
1529183195.09,56439,17.13,74072.0,3.31,0.01,-0.19,0,*65
1529183196.29,56440,17.13,74074.3,3.31,0.05,-0.19,0,*6F
1529183197.48,56441,17.13,74074.3,3.31,0.01,-0.19,0,*6A
1529183198.69,56442,17.13,74070.3,3.33,-0.03,-0.15,0,*48
1529183199.9,56443,17.13,74072.0,3.33,0.05,-0.15,0,*62
1529183201.1,56444,17.13,74072.5,3.33,0.05,-0.15,0,*65
1529183202.29,56445,17.13,74072.8,3.31,0.01,-0.19,0,*6E
1529183203.5,56446,17.13,74074.3,3.33,0.05,-0.15,0,*67
1529183204.7,56447,17.13,74072.8,3.33,0.05,-0.15,0,*66
1529183205.9,56448,17.13,74076.5,3.31,0.05,-0.19,0,*67
1529183207.09,56449,17.13,74078.5,3.31,0.01,-0.11,0,*6A
1529183208.29,56450,17.13,74076.8,3.31,-0.07,-0.19,0,*41
1529183209.49,56451,17.13,74076.5,3.31,0.05,-0.19,0,*6F
1529183210.69,56452,17.13,74076.5,3.33,0.09,-0.15,0,*6E
1529183211.89,56453,17.13,74072.0,3.33,0.05,-0.07,0,*50
1529183213.1,56454,17.13,74074.0,3.33,0.05,-0.15,0,*64
1529183214.31,56455,17.13,74074.5,3.33,-0.03,-0.15,0,*4E
1529183215.51,56456,17.13,74072.8,3.33,0.05,-0.15,0,*66
1529183216.71,56457,17.13,74074.3,3.31,0.05,-0.19,0,*69
1529183217.92,56458,17.13,74078.8,3.33,0.05,-0.15,0,*68
1529183219.12,56459,17.13,74078.3,3.33,0.05,-0.15,0,*69
1529183220.33,56460,17.13,74078.0,3.33,-0.03,-0.15,0,*48
1529183221.54,56461,17.13,74076.5,3.33,-0.03,-0.19,0,*45
1529183222.74,56462,17.13,74076.3,3.33,0.09,-0.07,0,*5E
1529183223.95,56463,17.13,74078.0,3.33,0.09,-0.15,0,*6C
1529183225.16,56464,17.13,74072.0,3.33,-0.03,-0.15,0,*4C
1529183226.37,56465,17.13,74072.5,3.33,-0.03,-0.19,0,*41
1529183227.56,56466,17.13,74074.3,3.35,0.01,-0.23,0,*62
1529183228.74,56467,17.13,74064.8,3.35,-0.03,-0.15,0,*49
1529183229.95,56468,17.13,74068.3,3.35,-0.11,-0.23,0,*70
1529183231.16,56469,17.13,74068.0,3.35,-0.11,-0.23,0,*71
1529183232.35,56470,17.13,74072.0,3.35,-0.03,-0.15,0,*4F
1529183233.53,56471,17.13,74070.0,3.35,-0.03,-0.15,0,*4E
1529183234.7,56472,17.13,74074.8,3.35,0.01,-0.15,0,*62
1529183235.89,56473,17.13,74072.5,3.35,-0.03,-0.15,0,*4C
1529183237.09,56474,17.13,74070.5,3.33,-0.07,-0.19,0,*45
1529183238.3,56475,17.13,74074.3,3.33,-0.07,-0.19,0,*44
1529183239.53,56476,17.13,74074.0,3.33,-0.07,-0.27,0,*4A
1529183240.76,56477,17.13,74074.3,3.33,-0.03,-0.27,0,*4F
1529183241.97,56478,17.13,74070.0,3.33,-0.07,-0.19,0,*49
1529183243.2,56479,17.13,74070.8,3.33,-0.03,-0.27,0,*41
1529183244.4,56480,17.13,74066.3,3.33,-0.07,-0.19,0,*4E
1529183245.61,56481,17.13,74068.5,3.33,-0.07,-0.19,0,*4F
1529183246.82,56482,17.13,74068.0,3.33,-0.07,-0.19,0,*4C
1529183248.05,56483,17.13,74070.8,3.33,-0.15,-0.27,0,*73
1529183249.25,56484,17.13,74068.3,3.35,-0.15,-0.23,0,*76
1529183250.46,56485,17.13,74078.0,3.35,-0.11,-0.23,0,*73
1529183251.67,56486,17.13,74074.5,3.35,-0.03,-0.23,0,*43
1529183252.85,56487,17.13,74076.5,3.35,-0.03,-0.15,0,*47
1529183254.06,56488,17.13,74076.0,3.33,-0.07,-0.19,0,*46
1529183255.27,56489,17.13,74074.3,3.33,-0.03,-0.19,0,*43
1529183256.47,56490,17.13,74072.8,3.33,-0.07,-0.19,0,*4F
1529183257.7,56491,17.13,74076.3,3.33,-0.07,-0.27,0,*43
1529183258.93,56492,17.13,74074.8,3.33,-0.07,-0.27,0,*40
1529183260.16,56493,17.13,74072.5,3.33,-0.07,-0.27,0,*41
1529183261.37,56494,17.13,74076.3,3.33,-0.03,-0.19,0,*4F
1529183262.55,56495,17.13,74074.8,3.35,-0.03,-0.15,0,*44
1529183263.73,56496,17.13,74076.5,3.35,-0.03,-0.15,0,*47
1529183264.91,56497,17.13,74078.5,3.35,0.01,-0.15,0,*69
1529183266.1,56498,17.13,74076.3,3.35,-0.11,-0.15,0,*7A
1529183267.31,56499,17.13,74076.8,3.35,-0.11,-0.23,0,*7E
1529183268.52,56500,17.13,74076.8,3.35,-0.11,-0.23,0,*7F
1529183269.72,56501,17.13,74072.3,3.35,-0.15,-0.23,0,*7A
1529183270.93,56502,17.13,74070.8,3.37,-0.15,-0.33,0,*7A
1529183272.14,56503,17.13,74074.8,3.35,-0.23,-0.37,0,*78
1529183273.4,56504,17.13,74074.5,3.37,-0.23,-0.27,0,*7C
1529183274.63,56505,17.13,74076.5,3.35,-0.27,-0.27,0,*7B
1529183275.84,56506,17.13,74078.3,3.35,-0.23,-0.33,0,*79
1529183277.05,56507,17.13,74080.3,3.35,-0.23,-0.33,0,*78
1529183278.28,56508,17.13,74078.5,3.35,-0.23,-0.27,0,*72
1529183279.49,56509,17.13,74076.5,3.35,-0.11,-0.27,0,*72
1529183280.7,56510,17.13,74076.8,3.35,-0.15,-0.27,0,*7E
1529183281.9,56511,17.13,74076.0,3.35,-0.15,-0.27,0,*7F
1529183283.11,56512,17.13,74078.3,3.35,-0.15,-0.27,0,*7C
1529183284.31,56513,17.13,74072.5,3.33,-0.15,-0.29,0,*75
1529183285.52,56514,17.13,74076.5,3.33,-0.19,-0.29,0,*7E
1529183286.73,56515,17.13,74074.3,3.33,-0.19,-0.29,0,*7F
1529183287.94,56516,17.13,74076.8,3.33,-0.19,-0.29,0,*7C
1529183289.15,56517,17.13,74076.0,3.33,-0.15,-0.29,0,*71
1529183290.36,56518,17.13,74074.0,3.33,-0.19,-0.29,0,*72
1529183291.57,56519,17.13,74076.3,3.33,-0.19,-0.29,0,*73
1529183292.78,56520,17.13,74074.0,3.33,-0.19,-0.29,0,*79
1529183293.98,56521,17.13,74076.8,3.33,-0.19,-0.29,0,*78
1529183295.19,56522,17.13,74074.5,3.33,-0.19,-0.29,0,*7B
1529183296.4,56523,17.13,74072.3,3.35,-0.11,-0.23,0,*7E
1529183297.63,56524,17.13,74078.8,3.33,-0.07,-0.27,0,*4C
1529183298.84,56525,17.13,74076.3,3.33,-0.07,-0.19,0,*40
1529183300.05,56526,17.13,74078.8,3.33,-0.15,-0.19,0,*70
1529183301.28,56527,17.13,74078.8,3.33,-0.15,-0.27,0,*7C
1529183302.52,56528,17.13,74076.0,3.33,-0.15,-0.27,0,*73
1529183303.73,56529,17.13,74078.0,3.35,-0.11,-0.23,0,*74
1529183304.92,56530,17.13,74074.5,3.35,-0.11,-0.15,0,*79
1529183306.12,56531,17.13,74072.3,3.35,-0.03,-0.23,0,*4E